GLD1974 SMJP-SOCA

Flight info

Callsign GLD1974
Flight time 0h 34m
Altitude 27000
Route MIKOK UN662 TEKAD TEKAD1U
Aircraft A319/M-SDE3FGHIRWY/LB1

Departure

Time 2026-05-05 12:56
Airport Johan Adolf Pengel International Airport (SMJP)

Arrival

Time 2026-05-05 13:31
Airport Cayenne – Félix Eboué Airport (SOCA)
Time Latitude Longitude Altitude Speed Heading
2026-05-05 12:42 5.45486 -55.19942 53 ft 0 kts 356°
2026-05-05 12:53 5.45488 -55.19947 59 ft 1 kts 310°
2026-05-05 12:53 5.45483 -55.19958 55 ft 4 kts 243°
2026-05-05 12:54 5.45456 -55.20071 59 ft 11 kts 270°
2026-05-05 12:54 5.45452 -55.20158 59 ft 14 kts 266°
2026-05-05 12:54 5.45446 -55.20261 59 ft 16 kts 269°
2026-05-05 12:55 5.45387 -55.20344 57 ft 17 kts 191°
2026-05-05 12:55 5.45282 -55.20290 55 ft 18 kts 104°
2026-05-05 12:55 5.45283 -55.20263 56 ft 0 kts 87°
2026-05-05 12:55 5.45283 -55.20260 56 ft 2 kts 87°
2026-05-05 12:56 5.45285 -55.20071 58 ft 78 kts 89°
2026-05-05 12:56 5.45289 -55.19169 207 ft 163 kts 89°
2026-05-05 12:56 5.45290 -55.17958 1072 ft 180 kts 90°
2026-05-05 12:56 5.45249 -55.16695 2246 ft 181 kts 95°
2026-05-05 12:57 5.45013 -55.15392 2975 ft 202 kts 101°
2026-05-05 12:57 5.44668 -55.13928 3678 ft 228 kts 102°
2026-05-05 12:57 5.44272 -55.12316 4487 ft 250 kts 102°
2026-05-05 12:57 5.43850 -55.10585 5559 ft 259 kts 102°
2026-05-05 12:58 5.43423 -55.08801 6720 ft 265 kts 102°
2026-05-05 12:58 5.42998 -55.06988 7864 ft 268 kts 102°
2026-05-05 12:58 5.42572 -55.05151 9024 ft 271 kts 102°
2026-05-05 12:58 5.42143 -55.03291 10154 ft 275 kts 102°
2026-05-05 12:59 5.41705 -55.01378 10780 ft 295 kts 102°
2026-05-05 12:59 5.41235 -54.99322 11566 ft 306 kts 102°
2026-05-05 12:59 5.40756 -54.97215 12497 ft 312 kts 102°
2026-05-05 13:00 5.39779 -54.92888 14280 ft 323 kts 102°
2026-05-05 13:00 5.39280 -54.90671 15093 ft 328 kts 102°
2026-05-05 13:01 5.37726 -54.83845 17426 ft 343 kts 102°
2026-05-05 13:01 5.37191 -54.81496 18193 ft 348 kts 102°
2026-05-05 13:01 5.36652 -54.79115 18855 ft 352 kts 102°
2026-05-05 13:01 5.36103 -54.76696 19506 ft 357 kts 102°
2026-05-05 13:02 5.35546 -54.74248 20129 ft 362 kts 103°
2026-05-05 13:02 5.34981 -54.71768 20776 ft 366 kts 103°
2026-05-05 13:02 5.34417 -54.69295 21422 ft 370 kts 103°
2026-05-05 13:02 5.33839 -54.66752 22008 ft 377 kts 103°
2026-05-05 13:03 5.33250 -54.64165 22581 ft 383 kts 104°
2026-05-05 13:03 5.32654 -54.61538 23187 ft 388 kts 104°
2026-05-05 13:03 5.32045 -54.58864 23735 ft 394 kts 104°
2026-05-05 13:03 5.31436 -54.56190 24208 ft 400 kts 104°
2026-05-05 13:04 5.30812 -54.53457 24732 ft 404 kts 105°
2026-05-05 13:04 5.30182 -54.50698 25249 ft 408 kts 104°
2026-05-05 13:04 5.29547 -54.47908 25747 ft 412 kts 104°
2026-05-05 13:04 5.28903 -54.45079 26238 ft 416 kts 104°
2026-05-05 13:05 5.28251 -54.42226 26719 ft 421 kts 104°
2026-05-05 13:05 5.27593 -54.39348 26981 ft 423 kts 104°
2026-05-05 13:05 5.26949 -54.36520 27043 ft 413 kts 104°
2026-05-05 13:05 5.26325 -54.33767 27051 ft 395 kts 104°
2026-05-05 13:06 5.25720 -54.31140 27053 ft 378 kts 107°
2026-05-05 13:06 5.24836 -54.28632 27060 ft 389 kts 115°
2026-05-05 13:06 5.23604 -54.26126 27054 ft 410 kts 118°
2026-05-05 13:06 5.22303 -54.23501 27054 ft 427 kts 118°
2026-05-05 13:07 5.20994 -54.20804 27053 ft 443 kts 117°
2026-05-05 13:07 5.19642 -54.17970 27051 ft 456 kts 117°
2026-05-05 13:07 5.18263 -54.15051 27051 ft 468 kts 116°
2026-05-05 13:07 5.16855 -54.12065 27052 ft 477 kts 117°
2026-05-05 13:08 5.15424 -54.09033 27048 ft 481 kts 117°
2026-05-05 13:08 5.13978 -54.05980 27048 ft 483 kts 117°
2026-05-05 13:08 5.12550 -54.02976 27049 ft 483 kts 116°
2026-05-05 13:08 5.11099 -53.99930 27049 ft 483 kts 117°
2026-05-05 13:09 5.09647 -53.96883 27047 ft 484 kts 117°
2026-05-05 13:09 5.08192 -53.93834 27049 ft 484 kts 117°
2026-05-05 13:09 5.06738 -53.90785 27049 ft 484 kts 117°
2026-05-05 13:09 5.05284 -53.87737 27048 ft 484 kts 117°
2026-05-05 13:10 5.03831 -53.84686 27050 ft 484 kts 117°
2026-05-05 13:10 5.02394 -53.81670 27045 ft 484 kts 117°
2026-05-05 13:10 5.00939 -53.78617 27044 ft 484 kts 117°
2026-05-05 13:10 4.99484 -53.75570 27043 ft 483 kts 116°
2026-05-05 13:11 4.98030 -53.72525 27046 ft 483 kts 117°
2026-05-05 13:11 4.96576 -53.69486 27044 ft 483 kts 117°
2026-05-05 13:11 4.95138 -53.66479 27042 ft 483 kts 117°
2026-05-05 13:11 4.93684 -53.63436 27040 ft 483 kts 116°
2026-05-05 13:12 4.92236 -53.60399 27036 ft 483 kts 116°
2026-05-05 13:12 4.90785 -53.57354 27034 ft 483 kts 116°
2026-05-05 13:12 4.89332 -53.54313 26863 ft 483 kts 116°
2026-05-05 13:12 4.87884 -53.51283 26271 ft 479 kts 116°
2026-05-05 13:13 4.86449 -53.48281 25106 ft 474 kts 117°
2026-05-05 13:13 4.85045 -53.45342 24004 ft 457 kts 117°
2026-05-05 13:13 4.83687 -53.42501 22554 ft 448 kts 116°
2026-05-05 13:13 4.82340 -53.39683 20662 ft 447 kts 116°
2026-05-05 13:14 4.81015 -53.36913 19066 ft 443 kts 115°
2026-05-05 13:14 4.79704 -53.34176 18071 ft 423 kts 115°
2026-05-05 13:14 4.78452 -53.31562 17044 ft 406 kts 115°
2026-05-05 13:14 4.77265 -53.29078 16151 ft 395 kts 114°
2026-05-05 13:15 4.76084 -53.26603 15274 ft 391 kts 114°
2026-05-05 13:15 4.74917 -53.24162 14441 ft 385 kts 114°
2026-05-05 13:15 4.73762 -53.21746 13597 ft 379 kts 114°
2026-05-05 13:15 4.72628 -53.19376 12782 ft 373 kts 114°
2026-05-05 13:16 4.71522 -53.17065 12024 ft 370 kts 114°
2026-05-05 13:16 4.70413 -53.14750 11327 ft 363 kts 114°
2026-05-05 13:16 4.69349 -53.12531 11184 ft 341 kts 114°
2026-05-05 13:16 4.68352 -53.10456 11070 ft 321 kts 114°
2026-05-05 13:17 4.67405 -53.08487 10949 ft 304 kts 114°
2026-05-05 13:17 4.66512 -53.06627 10835 ft 289 kts 114°
2026-05-05 13:17 4.65666 -53.04851 10584 ft 273 kts 114°
2026-05-05 13:17 4.64938 -53.03192 10360 ft 255 kts 107°
2026-05-05 13:18 4.64528 -53.01490 10100 ft 251 kts 97°
2026-05-05 13:18 4.64442 -52.99756 9933 ft 248 kts 88°
2026-05-05 13:18 4.64664 -52.98037 9807 ft 247 kts 79°
2026-05-05 13:18 4.65001 -52.96403 9669 ft 230 kts 80°
2026-05-05 13:19 4.65307 -52.94874 9546 ft 218 kts 80°
2026-05-05 13:19 4.65596 -52.93424 9426 ft 213 kts 80°
2026-05-05 13:19 4.65886 -52.91972 9292 ft 212 kts 80°
2026-05-05 13:19 4.66175 -52.90527 9172 ft 211 kts 80°
2026-05-05 13:20 4.66460 -52.89085 9045 ft 211 kts 80°
2026-05-05 13:20 4.66746 -52.87639 8817 ft 210 kts 80°
2026-05-05 13:20 4.67031 -52.86198 8497 ft 209 kts 80°
2026-05-05 13:20 4.67311 -52.84781 8168 ft 210 kts 80°
2026-05-05 13:21 4.67596 -52.83346 7829 ft 210 kts 80°
2026-05-05 13:21 4.67883 -52.81905 7500 ft 210 kts 80°
2026-05-05 13:21 4.68169 -52.80476 7193 ft 209 kts 79°
2026-05-05 13:21 4.68453 -52.79048 6861 ft 210 kts 79°
2026-05-05 13:22 4.68740 -52.77609 6522 ft 211 kts 79°
2026-05-05 13:22 4.69027 -52.76169 6157 ft 209 kts 79°
2026-05-05 13:22 4.69307 -52.74765 5816 ft 202 kts 79°
2026-05-05 13:22 4.69582 -52.73396 5484 ft 199 kts 79°
2026-05-05 13:23 4.69853 -52.72039 5162 ft 198 kts 78°
2026-05-05 13:23 4.70122 -52.70694 4844 ft 196 kts 79°
2026-05-05 13:23 4.70393 -52.69349 4513 ft 197 kts 78°
2026-05-05 13:23 4.70661 -52.68011 4185 ft 198 kts 78°
2026-05-05 13:24 4.70931 -52.66659 3859 ft 198 kts 78°
2026-05-05 13:24 4.71200 -52.65301 3528 ft 198 kts 78°
2026-05-05 13:24 4.71472 -52.63942 3208 ft 199 kts 78°
2026-05-05 13:24 4.71745 -52.62577 2862 ft 200 kts 78°
2026-05-05 13:25 4.72020 -52.61205 2547 ft 200 kts 78°
2026-05-05 13:25 4.72291 -52.59848 2382 ft 194 kts 79°
2026-05-05 13:25 4.72553 -52.58536 2315 ft 194 kts 78°
2026-05-05 13:25 4.72820 -52.57208 2234 ft 194 kts 79°
2026-05-05 13:26 4.73101 -52.55872 2148 ft 197 kts 75°
2026-05-05 13:26 4.73547 -52.54571 2104 ft 197 kts 68°
2026-05-05 13:26 4.74086 -52.53314 2108 ft 195 kts 66°
2026-05-05 13:26 4.74458 -52.52492 2107 ft 196 kts 65°
2026-05-05 13:27 4.75025 -52.51257 2101 ft 193 kts 65°
2026-05-05 13:27 4.75769 -52.49643 2115 ft 192 kts 65°
2026-05-05 13:27 4.76321 -52.48444 2109 ft 184 kts 65°
2026-05-05 13:27 4.76678 -52.47670 2068 ft 179 kts 66°
2026-05-05 13:28 4.77188 -52.46564 1933 ft 170 kts 65°
2026-05-05 13:28 4.77654 -52.45556 1719 ft 149 kts 66°
2026-05-05 13:28 4.78063 -52.44668 1541 ft 135 kts 67°
2026-05-05 13:28 4.78441 -52.43850 1388 ft 121 kts 66°
2026-05-05 13:29 4.78788 -52.43096 1228 ft 117 kts 66°
2026-05-05 13:29 4.79126 -52.42363 1081 ft 114 kts 66°
2026-05-05 13:29 4.79457 -52.41643 940 ft 115 kts 67°
2026-05-05 13:29 4.79792 -52.40918 786 ft 115 kts 65°
2026-05-05 13:30 4.80128 -52.40187 653 ft 117 kts 69°
2026-05-05 13:30 4.80467 -52.39451 480 ft 114 kts 66°
2026-05-05 13:30 4.80778 -52.38721 323 ft 113 kts 65°
2026-05-05 13:30 4.81120 -52.38006 184 ft 113 kts 65°
2026-05-05 13:31 4.81449 -52.37288 43 ft 111 kts 66°
2026-05-05 13:31 4.81699 -52.36750 28 ft 47 kts 65°
2026-05-05 13:31 4.81791 -52.36552 29 ft 29 kts 65°
2026-05-05 13:31 4.81873 -52.36377 28 ft 27 kts 65°
2026-05-05 13:32 4.81934 -52.36248 29 ft 18 kts 64°
2026-05-05 13:32 4.82034 -52.36242 29 ft 16 kts 336°
2026-05-05 13:32 4.82135 -52.36285 29 ft 11 kts 339°
2026-05-05 13:32 4.82189 -52.36308 30 ft 0 kts 336°